[[{"header":{"parameterUnit":"m.s-1","parameterCategory":1,"la1":30.2991,"la2":30.254,"lo1":-89.0895,"lo2":-89.0444,"dy":0.0017,"dx":0.0017,"nx":28,"ny":28,"refTime":"2025-05-27T21:00:00:Z","depth":0,"parameterNumber":2,"parameterNumberName":"U-component_of_WINDS"},"data":[0,0,0,0,0,0,0,0,0,0,0,0,0,0,0,0,0,0,0,0,0,0,0,0,0,0,0,0,0,0,0,0,0,0,0,0,0,0,0,0,0,0,0,0,0,0,0,0,0,0,0,0,0,0,0,0,0,0,1.0915,1.0917,0,1.105,1.1051,1.1053,1.1084,1.1083,1.1082,1.1081,1.1218,1.1222,1.1227,0,0,0,0,0,0,0,0,0,0,0,0,0,1.0683,1.0687,1.0915,1.0917,1.0919,1.1049,1.1051,1.1053,1.1084,1.1083,1.1081,1.108,1.1216,1.1222,1.1227,0,0,0,0,0,0,0,0,0,0,0,0,0,1.0797,1.0688,1.0915,1.095,1.0954,1.1049,1.1051,1.1054,1.1084,1.1083,1.1081,1.108,1.1214,1.1221,1.1228,1.1297,0,0,1.1248,1.1251,0,0,0,0,0,0,0,0,1.0791,1.0806,1.0943,1.0947,1.0953,1.1048,1.102,1.1135,1.1084,1.1035,1.1081,1.1079,1.1162,1.1173,1.1202,1.1304,1.131,1.1249,1.1253,1.1256,1.1258,0,0,0,0,0,0,0,1.0783,1.08,1.0968,1.0945,1.0951,1.0958,1.0972,1.1042,1.1105,1.1039,1.1041,1.1057,1.1165,1.1195,1.1205,1.1312,1.1249,1.1255,1.1259,1.1262,1.1476,1.1477,0,0,0,0,0,0,1.0769,1.0793,1.0964,1.0972,1.0867,1.0963,1.098,1.1019,1.1104,1.1116,1.1058,1.1058,1.1184,1.1197,1.121,1.1296,1.1256,1.1262,1.1266,1.1474,1.1476,1.1478,0,0,0,0,0,0,1.0764,1.0784,1.0959,1.0884,1.0906,1.0969,1.1013,1.1022,1.1053,1.1119,1.113,1.1077,1.1184,1.1201,1.1275,1.1301,1.1265,1.1271,1.1472,1.1475,1.1477,1.147,0,0,0,0,0,0,1.0757,1.0782,1.081,1.0884,1.091,1.1022,1.1014,1.1026,1.1064,1.1066,1.114,1.1151,1.1184,1.1265,1.1282,1.131,1.1277,1.147,1.1473,1.1476,1.1468,1.1471,1.1475,0,0,0,0,0,1.0749,1.0802,1.0811,1.0831,1.0946,1.1024,1.1039,1.1076,1.1066,1.1094,1.1136,1.1148,1.1296,1.1272,1.1292,1.1322,1.1469,1.1472,1.1476,1.1466,1.1471,1.1475,0,0,0,0,0,0,1.073,1.0813,1.0823,1.0903,1.0956,1.1029,1.1065,1.108,1.1136,1.1135,1.1178,1.1195,1.1266,1.1302,1.1274,1.1393,1.1382,1.1389,1.1368,1.1373,1.1376,1.1366,1.1282,0,0,0,0,0,1.0735,1.0791,1.086,1.0924,1.095,1.1003,1.1038,1.1062,1.1118,1.1141,1.1189,1.1243,1.1301,1.1339,1.1396,1.1473,1.1489,1.1503,1.1506,1.1509,1.1515,1.1557,1.1564,1.149,1.149,1.149,0,0,1.0746,1.0798,1.0831,1.0921,1.0965,1.1022,1.1022,1.1082,1.1124,1.115,1.1223,1.126,1.1323,1.1398,1.1434,1.143,1.1539,1.1514,1.1515,1.152,1.1561,1.1568,1.1575,1.1492,1.1492,1.1491,0,0,1.0795,1.0841,1.0898,1.0942,1.1008,1.1043,1.1056,1.1127,1.1152,1.1226,1.1246,1.1296,1.1396,1.144,1.1475,1.1539,1.1552,1.1556,1.1574,1.1614,1.162,1.1626,1.1648,1.1655,1.1562,1.1562,1.1562,0,1.08,1.0887,1.0925,1.0985,1.1023,1.1049,1.1106,1.1147,1.1228,1.1254,1.1248,1.1373,1.1418,1.1503,1.1518,1.1546,1.1562,1.1548,1.1616,1.1622,1.1628,1.1649,1.1657,1.1562,1.1562,1.1562,1.1562,0,1.089,1.0949,1.0988,1.1065,1.1108,1.1166,1.1212,1.1251,1.127,1.1305,1.1379,1.1433,1.1501,1.1523,1.1543,1.1611,1.1606,1.1608,1.1597,1.1634,1.1655,1.1664,1.1562,1.1562,1.1562,1.1562,0,0,1.0932,1.1029,1.1043,1.1078,1.1152,1.1198,1.1257,1.1323,1.1355,1.141,1.1459,1.1542,1.1544,1.1584,1.1609,1.1644,1.1689,1.1641,1.1643,1.1648,1.1766,1.1764,1.1773,1.1698,1.1699,1.1701,1.1761,0,1.099,1.1096,1.1131,1.1219,1.1274,1.1298,1.1348,1.1399,1.1432,1.1483,1.152,1.1578,1.1576,1.16,1.1636,1.1676,1.1713,1.1672,1.1744,1.1746,1.1727,1.1784,1.1783,1.1837,1.1769,1.177,1.1771,0,1.1072,1.1128,1.1221,1.1287,1.1311,1.1356,1.1419,1.1468,1.1525,1.1546,1.159,1.1612,1.1672,1.1657,1.1741,1.1712,1.1743,1.1767,1.177,1.1779,1.1761,1.1794,1.1855,1.1863,1.1785,1.1784,1.1783,0,1.1093,1.1191,1.1259,1.1288,1.1367,1.1398,1.1432,1.1488,1.1525,1.158,1.1604,1.1665,1.1698,1.1745,1.1782,1.1768,1.1862,1.185,1.1881,1.188,1.19,1.1898,1.1967,1.192,1.192,1.192,1.192,0,1.1154,1.121,1.1269,1.1311,1.1374,1.1413,1.1474,1.1509,1.1558,1.1606,1.1631,1.1675,1.1722,1.1772,1.1802,1.1866,1.1881,1.1899,1.1907,1.1897,1.1895,1.1919,1.1916,1.1922,1.1921,1.1921,1.1921,0,1.1188,1.123,1.1306,1.1374,1.1392,1.1435,1.1493,1.1534,1.1568,1.1628,1.1645,1.1698,1.1758,1.18,1.1877,1.1897,1.1966,1.1973,1.1947,1.1951,1.1979,1.1975,1.2065,1.2079,1.2022,1.2023,1.2023,0,1.1224,1.1268,1.134,1.1374,1.1408,1.1463,1.1501,1.1541,1.1579,1.1646,1.1679,1.1741,1.1793,1.1888,1.1933,1.1992,1.2,1.2027,1.2009,1.1998,1.2,1.1997,1.2001,1.203,1.203,1.2031,1.2031,0,1.1284,1.1302,1.1356,1.1417,1.1461,1.1511,1.1561,1.1588,1.1636,1.1677,1.1739,1.1779,1.1858,1.1919,1.1982,1.2016,1.2031,1.2036,1.2046,1.2038,1.2021,1.203,1.1955,1.2034,1.2034,1.2034,1.2033,1.2033,1.132,1.1359,1.1416,1.1474,1.1516,1.1562,1.1603,1.1642,1.1694,1.1762,1.1782,1.1846,1.19,1.1986,1.2021,1.2071,1.2069,1.2084,1.2088,1.2091,1.209,1.2012,1.2083,1.2083,1.2083,1.2083,1.2083,0,1.138,1.1417,1.1471,1.154,1.1586,1.1596,1.1651,1.1689,1.1745,1.1795,1.1845,1.1915,1.1974,1.2023,1.2083,1.2114,1.2122,1.2129,1.2127,1.2134,1.2089,1.2074,1.2121,1.2121,1.2121,1.2121,1.2121,1.2121,1.1417,1.1483,1.1508,1.1595,1.1632,1.1695,1.1725,1.1767,1.1807,1.1885,1.1934,1.1965,1.2014,1.2078,1.2132,1.2145,1.2166,1.217,1.2184,1.2142,1.2137,1.2133,1.2119,1.2174,1.2175,1.2225,1.2226,1.2226]},{"header":{"parameterUnit":"m.s-1","parameterCategory":1,"la1":30.2991,"la2":30.254,"lo1":-89.0895,"lo2":-89.0444,"dy":0.0017,"dx":0.0017,"nx":28,"ny":28,"refTime":"2025-05-27T21:00:00:Z","depth":0,"parameterNumber":3,"parameterNumberName":"V-component_of_WINDS"},"data":[0,0,0,0,0,0,0,0,0,0,0,0,0,0,0,0,0,0,0,0,0,0,0,0,0,0,0,0,0,0,0,0,0,0,0,0,0,0,0,0,0,0,0,0,0,0,0,0,0,0,0,0,0,0,0,0,0,0,5.145,5.145,0,5.1505,5.1506,5.1507,5.1461,5.1459,5.1457,5.1455,5.1507,5.151,5.1513,0,0,0,0,0,0,0,0,0,0,0,0,0,5.1299,5.1302,5.145,5.145,5.1451,5.1505,5.1506,5.1507,5.1461,5.1459,5.1456,5.1454,5.1506,5.151,5.1514,0,0,0,0,0,0,0,0,0,0,0,0,0,5.136,5.1303,5.145,5.1435,5.1434,5.1505,5.1506,5.1507,5.1462,5.1459,5.1456,5.1453,5.1505,5.151,5.1514,5.1601,0,0,5.1529,5.1531,0,0,0,0,0,0,0,0,5.1357,5.1366,5.1436,5.1436,5.1435,5.1473,5.1472,5.1538,5.1462,5.1451,5.1455,5.1452,5.1498,5.1503,5.152,5.1603,5.1606,5.1529,5.1532,5.1534,5.1535,0,0,0,0,0,0,0,5.1353,5.1363,5.1472,5.1438,5.1437,5.1424,5.143,5.1484,5.149,5.1452,5.1449,5.1456,5.1497,5.1515,5.152,5.1606,5.1529,5.1533,5.1536,5.1538,5.1763,5.1766,0,0,0,0,0,0,5.1351,5.136,5.147,5.1473,5.1389,5.1429,5.1435,5.1464,5.1489,5.149,5.1459,5.1454,5.1508,5.1515,5.1522,5.1625,5.1534,5.1538,5.1541,5.176,5.1764,5.1767,0,0,0,0,0,0,5.1348,5.1361,5.1468,5.1416,5.1428,5.1435,5.1467,5.1467,5.1485,5.1494,5.1494,5.1476,5.1506,5.1515,5.1582,5.1626,5.1541,5.1545,5.1756,5.1761,5.1765,5.1831,0,0,0,0,0,0,5.1343,5.136,5.1394,5.1417,5.1431,5.1528,5.147,5.147,5.1494,5.1488,5.1511,5.1512,5.1505,5.1575,5.1587,5.1631,5.1549,5.1752,5.1758,5.1764,5.1825,5.1838,5.1848,0,0,0,0,0,5.1338,5.141,5.1396,5.141,5.1475,5.1531,5.1539,5.1531,5.1497,5.1531,5.1537,5.1511,5.1619,5.1582,5.1595,5.1641,5.1749,5.1756,5.1763,5.182,5.1835,5.1848,0,0,0,0,0,0,5.139,5.1412,5.1398,5.1479,5.1504,5.1523,5.1565,5.1547,5.158,5.1573,5.156,5.1566,5.1635,5.1645,5.1603,5.1726,5.1679,5.1689,5.1717,5.1732,5.1743,5.1739,5.1553,0,0,0,0,0,5.1412,5.1457,5.1473,5.1543,5.1556,5.1559,5.1583,5.1575,5.1599,5.1608,5.1619,5.1642,5.1681,5.1707,5.1743,5.1826,5.183,5.1864,5.1876,5.1885,5.1894,5.1937,5.1953,5.179,5.179,5.179,0,0,5.1455,5.1473,5.1502,5.1554,5.1572,5.1618,5.1568,5.1618,5.1651,5.1615,5.1679,5.1688,5.1712,5.1787,5.1821,5.1797,5.194,5.1894,5.1902,5.1905,5.1946,5.1962,5.1975,5.1795,5.1794,5.1793,0,0,5.1558,5.1577,5.1637,5.1657,5.1685,5.1686,5.1701,5.1723,5.1728,5.1792,5.1766,5.1804,5.1872,5.1891,5.1909,5.2019,5.1996,5.2031,5.2091,5.2134,5.2147,5.2158,5.2197,5.2211,5.204,5.204,5.204,0,5.1608,5.1678,5.167,5.1723,5.1746,5.1717,5.1777,5.1795,5.1834,5.185,5.1823,5.1908,5.1922,5.2001,5.2028,5.2044,5.2059,5.2028,5.2146,5.2157,5.2168,5.2204,5.2219,5.2044,5.2043,5.2043,5.2043,0,5.1738,5.1787,5.1832,5.1871,5.1899,5.1955,5.1954,5.1983,5.1972,5.1976,5.2041,5.2057,5.2096,5.2114,5.2104,5.2191,5.2176,5.2148,5.21,5.2187,5.2221,5.2235,5.205,5.2048,5.2047,5.2046,0,0,5.1875,5.191,5.1927,5.1944,5.1974,5.201,5.2064,5.2104,5.2129,5.2156,5.22,5.2258,5.2233,5.2253,5.2244,5.2282,5.2368,5.2249,5.225,5.227,5.2464,5.2485,5.2501,5.2353,5.2355,5.2358,5.2462,0,5.1979,5.2076,5.207,5.2159,5.2203,5.2177,5.2223,5.2246,5.225,5.2287,5.2291,5.2332,5.2296,5.2308,5.2344,5.235,5.2406,5.2342,5.2392,5.2394,5.2387,5.2519,5.2541,5.2639,5.2475,5.2477,5.2479,0,5.2113,5.2147,5.2242,5.2265,5.2283,5.2325,5.2361,5.2397,5.2421,5.2422,5.2445,5.243,5.2483,5.2434,5.2506,5.2463,5.2483,5.2488,5.2492,5.2496,5.2442,5.2526,5.267,5.2684,5.25,5.2498,5.2497,0,5.2203,5.2272,5.2338,5.2353,5.2382,5.2412,5.2425,5.2446,5.247,5.2501,5.2516,5.2552,5.2572,5.2599,5.2594,5.2559,5.2667,5.2618,5.2667,5.2668,5.2691,5.2689,5.2839,5.2705,5.2705,5.2704,5.2704,0,5.232,5.2378,5.2378,5.2419,5.2483,5.2475,5.2539,5.2548,5.2567,5.2607,5.2585,5.2623,5.2614,5.2651,5.2646,5.2706,5.2715,5.2716,5.2714,5.2718,5.2718,5.273,5.2723,5.2708,5.2707,5.2707,5.2706,0,5.2431,5.2433,5.2503,5.2524,5.2531,5.2578,5.2595,5.2632,5.2635,5.2686,5.2698,5.2702,5.2744,5.2741,5.2789,5.2786,5.286,5.285,5.2852,5.285,5.2899,5.2895,5.3062,5.3084,5.2936,5.2937,5.2939,0,5.2505,5.2549,5.2576,5.2603,5.2618,5.266,5.2686,5.2679,5.2705,5.2736,5.2769,5.281,5.2843,5.2911,5.2918,5.2953,5.2944,5.3,5.2949,5.2951,5.2944,5.2942,5.2946,5.301,5.3012,5.3013,5.3014,0,5.2635,5.2635,5.2673,5.2712,5.2743,5.2772,5.2799,5.2821,5.2817,5.2848,5.2892,5.2917,5.2967,5.3007,5.3041,5.3052,5.3032,5.3031,5.3044,5.3048,5.3047,5.3048,5.2879,5.3026,5.3025,5.3024,5.3024,5.3023,5.273,5.2768,5.2793,5.2836,5.2856,5.2882,5.2918,5.2926,5.2964,5.3005,5.2998,5.3047,5.3069,5.3113,5.3128,5.3165,5.3144,5.3164,5.3169,5.3173,5.3179,5.3042,5.3171,5.3171,5.317,5.317,5.317,0,5.2859,5.2874,5.2914,5.2953,5.2987,5.2967,5.2996,5.3024,5.3069,5.3092,5.3125,5.3175,5.3214,5.3223,5.326,5.3288,5.328,5.3298,5.3296,5.3299,5.3195,5.318,5.3304,5.3304,5.3304,5.3304,5.3304,5.3304,5.293,5.2994,5.2996,5.307,5.3084,5.3133,5.3152,5.3175,5.3193,5.3251,5.3284,5.3291,5.3308,5.3346,5.338,5.3382,5.3396,5.3418,5.3416,5.3319,5.3306,5.3293,5.3278,5.3421,5.3422,5.3516,5.3517,5.3518]}]]